Weather History for Al Udeid, Qatar

Change the Weather History Date:

Saturday, May 31, 2014

  Actual Average Record
Temperature  
Mean Temperature 99 °F -  
Max Temperature 112 °F - - ()
Min Temperature 86 °F - - ()
Cooling Degree Days 34    
Growing Degree Days 49 (Base 50)    
Moisture  
Dew Point 48 °F    
Average Humidity 20    
Maximum Humidity 38    
Minimum Humidity 8    
Precipitation  
Precipitation 0.00 in - - ()
Sea Level Pressure  
Sea Level Pressure 29.63 in    
Wind  
Wind Speed 9 mph ()    
Max Wind Speed 20 mph    
Max Gust Speed -    
Visibility 6.2 miles    
Events      
T = Trace of Precipitation, MM = Missing Value Source: Averaged Metar Reports

Daily Weather History Graph

Daily Weather History Graph

Search for Another Location

Airport:

Trip Planner

Search our weather history database for the weather conditions in past years. The results will help you decide how hot, cold, wet, or windy it might be!

Date:

Astronomy

May. 31, 2014 Rise Set
Actual Time 4:44 AM AST 6:20 PM AST
Civil Twilight 4:19 AM AST 6:45 PM AST
Nautical Twilight 3:48 AM AST 7:16 PM AST
Astronomical Twilight 3:16 AM AST 7:48 PM AST
Moon 6:54 AM AST 8:30 PM AST
Length of Visible Light 14h 26m
Length of Day
13h 35m
Waxing Crescent, 7% of the Moon is Illuminated
May 31
Waxing Crescent
Jun 5
First Quarter
Jun 13
Full
Jun 19
Last Quarter
Jun 27
New

Hourly Weather History & Observations

Time (AST) Temp. Heat Index Dew Point Humidity Pressure Visibility Wind Dir Wind Speed Gust Speed Precip Events Conditions
12:58 AM 88.9 °F - 43.7 °F 21% 29.61 in 6.2 mi WSW 5.8 mph - N/A   Clear
1:58 AM 87.1 °F - 43.3 °F 22% 29.60 in 6.2 mi West 6.9 mph - N/A   Clear
2:58 AM 86.0 °F - 42.3 °F 21% 29.60 in 6.2 mi West 8.1 mph - N/A   Clear
3:58 AM 86.5 °F - 42.8 °F 22% 29.60 in 6.2 mi WNW 3.5 mph - N/A   Clear
4:58 AM 86.4 °F - 44.1 °F 23% 29.61 in 6.2 mi WNW 8.1 mph - N/A   Clear
5:58 AM 88.2 °F 85.9 °F 53.4 °F 30% 29.63 in 6.2 mi NW 10.4 mph - N/A   Clear
6:58 AM 92.7 °F 94.0 °F 63.3 °F 38% 29.65 in 6.2 mi NW 9.2 mph - N/A   Clear
7:58 AM 97.7 °F 100.6 °F 64.6 °F 34% 29.66 in 6.2 mi NW 15.0 mph - N/A   Clear
8:58 AM 101.5 °F 104.3 °F 64.0 °F 29% 29.66 in 6.2 mi NW 10.4 mph - N/A   Clear
9:59 AM 105.1 °F 106.4 °F 60.8 °F 23% 29.66 in 6.2 mi NW 13.8 mph - N/A   Clear
10:58 AM 109.4 °F - 50.2 °F 14% 29.64 in 6.2 mi NNW 11.5 mph - N/A   Partly Cloudy
11:58 AM 110.7 °F - 52.0 °F 14% 29.63 in 6.2 mi NNW 12.7 mph - N/A   Mostly Cloudy
12:58 PM 111.9 °F - 38.3 °F 8% 29.62 in 6.2 mi NNW 10.4 mph - N/A   Clear
1:59 PM 112.8 °F - 39.0 °F 8% 29.61 in 6.2 mi NNW 15.0 mph - N/A   Clear
2:20 PM 111.2 °F - 42.8 °F 10% 29.61 in 6.2 mi NNW 17.3 mph - N/A   Clear
2:58 PM 111.4 °F - 41.0 °F 9% 29.60 in 6.2 mi NW 19.6 mph - N/A   Clear
3:58 PM 109.9 °F - 42.6 °F 10% 29.61 in 6.2 mi NNW 18.4 mph - N/A   Clear
4:58 PM 107.8 °F - 43.9 °F 12% 29.61 in 6.2 mi NNW 18.4 mph - N/A   Clear
5:58 PM 104.7 °F - 43.2 °F 12% 29.62 in 6.2 mi North 16.1 mph - N/A   Clear
6:58 PM 101.5 °F - 46.6 °F 16% 29.63 in 6.2 mi North 12.7 mph - N/A   Clear
7:58 PM 96.4 °F - 48.6 °F 20% 29.65 in 6.2 mi North 6.9 mph - N/A   Clear
8:58 PM 95.5 °F - 49.1 °F 21% 29.65 in 6.2 mi NW 4.6 mph - N/A   Clear
9:58 PM 91.0 °F - 47.7 °F 22% 29.65 in 6.2 mi West 5.8 mph - N/A   Clear
10:58 PM 88.7 °F - 48.2 °F 25% 29.65 in 6.2 mi WNW 6.9 mph - N/A   Clear
11:58 PM 86.5 °F - 49.3 °F 28% 29.63 in 6.2 mi West 8.1 mph - N/A   Clear